Weather History for KADM - January, 2014

Change the Weather History Date:

Monday, January 6, 2014

  Actual Average Record
Temperature  
Mean Temperature 18 °F -  
Max Temperature 28 °F 50 °F 75 °F (2008)
Min Temperature 8 °F 32 °F 8 °F (2014)
Degree Days  
Heating Degree Days 47    
Moisture  
Dew Point 5 °F    
Average Humidity 63    
Maximum Humidity 92    
Minimum Humidity 31    
Precipitation  
Precipitation 0.00 in - - ()
Sea Level Pressure  
Sea Level Pressure 30.62 in    
Wind  
Wind Speed 8 mph (NNW)    
Max Wind Speed 14 mph    
Max Gust Speed 16 mph    
Visibility 10 miles    
Events      
Averages and records for this station are not official NWS values.
T = Trace of Precipitation, MM = Missing Value Source: NWS Daily Summary

Daily Weather History Graph

Daily Weather History Graph

Search for Another Location

Airport or City:

Trip Planner

Search our weather history database for the weather conditions in past years. The results will help you decide how hot, cold, wet, or windy it might be!

Date:

Astronomy

Jan. 06, 2014 Rise Set
Actual Time 7:34 AM CST 5:33 PM CST
Civil Twilight 7:07 AM CST 6:00 PM CST
Nautical Twilight 6:36 AM CST 6:32 PM CST
Astronomical Twilight 6:05 AM CST 7:02 PM CST
Moon 11:07 AM CST (1/6) 11:49 PM CST (1/6)
Length of Visible Light 10h 53m
Length of Day
9h 58m
Waxing Crescent, 35% of the Moon is Illuminated
Jan 6
Waxing Crescent
Jan 7
First Quarter
Jan 15
Full
Jan 23
Last Quarter
Jan 30
New

Hourly Weather History & Observations

Time (CST) Temp. Windchill Dew Point Humidity Pressure Visibility Wind Dir Wind Speed Gust Speed Precip Events Conditions
12:15 AM 14.9 °F 1.6 °F 3.2 °F 60% 30.59 in 10.0 mi North 11.5 mph - N/A   Clear
12:35 AM 14.7 °F 2.1 °F 3.0 °F 60% 30.60 in 10.0 mi North 10.4 mph 16.1 mph N/A   Scattered Clouds
12:55 AM 14.5 °F 1.9 °F 3.0 °F 60% 30.61 in 10.0 mi North 10.4 mph - N/A   Scattered Clouds
1:15 AM 14.4 °F 4.3 °F 3.2 °F 61% 30.62 in 10.0 mi North 6.9 mph - N/A   Clear
1:35 AM 14.0 °F 3.9 °F 3.6 °F 63% 30.62 in 10.0 mi North 6.9 mph - N/A   Clear
1:55 AM 13.3 °F 5.6 °F 3.7 °F 66% 30.62 in 10.0 mi NNW 4.6 mph - N/A   Clear
2:15 AM 12.6 °F 2.2 °F 3.9 °F 68% 30.64 in 10.0 mi NNW 6.9 mph - N/A   Clear
2:35 AM 12.7 °F 1.4 °F 4.1 °F 68% 30.63 in 10.0 mi NNW 8.1 mph - N/A   Clear
2:55 AM 12.2 °F -0.2 °F 4.1 °F 70% 30.64 in 10.0 mi North 9.2 mph - N/A   Clear
3:15 AM 12.2 °F -0.2 °F 4.1 °F 70% 30.64 in 10.0 mi North 9.2 mph - N/A   Clear
3:35 AM 12.7 °F -0.4 °F 3.9 °F 68% 30.65 in 10.0 mi North 10.4 mph - N/A   Clear
3:55 AM 12.4 °F 0.0 °F 3.9 °F 69% 30.64 in 10.0 mi North 9.2 mph - N/A   Clear
4:15 AM 11.8 °F 1.3 °F 4.1 °F 71% 30.63 in 10.0 mi North 6.9 mph - N/A   Clear
4:35 AM 12.4 °F 0.9 °F 4.3 °F 70% 30.63 in 10.0 mi North 8.1 mph - N/A   Clear
4:55 AM 12.6 °F -0.6 °F 4.3 °F 69% 30.63 in 10.0 mi North 10.4 mph - N/A   Clear
5:15 AM 12.2 °F - 3.9 °F 69% 30.63 in 10.0 mi Calm Calm - N/A   Clear
5:35 AM 11.3 °F 5.1 °F 3.2 °F 70% 30.64 in 10.0 mi NW 3.5 mph - N/A   Clear
6:55 AM 10.4 °F 4.0 °F 8.6 °F 92% 30.66 in 10.0 mi North 3.5 mph - N/A   Clear
7:55 AM 8.6 °F 0.1 °F 3.2 °F 79% 30.68 in 10.0 mi North 4.6 mph - N/A   Clear
8:55 AM 14.0 °F - 5.0 °F 67% 30.70 in 10.0 mi Calm Calm - N/A   Clear
9:55 AM 17.6 °F 6.4 °F 6.8 °F 63% 30.73 in 10.0 mi NNW 9.2 mph - N/A   Clear
10:55 AM 21.2 °F 10.1 °F 6.8 °F 54% 30.73 in 10.0 mi NW 10.4 mph 16.1 mph N/A   Clear
11:55 AM 24.8 °F 15.3 °F 5.0 °F 43% 30.71 in 10.0 mi NW 9.2 mph - N/A   Clear
1:55 PM 26.6 °F 15.2 °F 1.4 °F 34% 30.64 in 10.0 mi NW 13.8 mph - N/A   Clear
2:55 PM 28.4 °F 19.1 °F 1.4 °F 31% 30.62 in 10.0 mi NW 10.4 mph - N/A   Clear
3:55 PM 28.4 °F 23.3 °F 1.4 °F 31% 30.61 in 10.0 mi North 4.6 mph 16.1 mph N/A   Clear
4:55 PM 28.4 °F 19.7 °F 3.2 °F 34% 30.59 in 10.0 mi West 9.2 mph - N/A   Clear
5:55 PM 23.0 °F 15.8 °F 5.0 °F 46% 30.58 in 10.0 mi West 5.8 mph - N/A   Clear
6:55 PM 23.0 °F 17.0 °F 5.0 °F 46% 30.58 in 10.0 mi South 4.6 mph - N/A   Clear
7:55 PM 21.2 °F 13.6 °F 6.8 °F 54% 30.58 in 10.0 mi SW 5.8 mph - N/A   Clear
8:55 PM 19.4 °F 11.5 °F 6.8 °F 58% 30.58 in 10.0 mi SW 5.8 mph - N/A   Clear
9:55 PM 17.6 °F - 8.6 °F 68% 30.58 in 10.0 mi Calm Calm - N/A   Clear
10:35 PM 16.3 °F - 8.8 °F 72% 30.55 in 10.0 mi Calm Calm - N/A   Clear
10:55 PM 15.8 °F - 10.4 °F 79% 30.54 in 10.0 mi Calm Calm - N/A   Clear
11:15 PM 14.9 °F - 10.4 °F 82% 30.53 in 10.0 mi Calm Calm - N/A   Clear
11:35 PM 14.9 °F - 9.7 °F 80% 30.53 in 10.0 mi Calm Calm - N/A   Clear
11:55 PM 14.7 °F - 11.3 °F 86% 30.53 in 10.0 mi Calm Calm - N/A   Clear